WGS SV-8

operational
NORAD ID: 41879 Int'l Des: 2016-075 Owner: AFSMC Country: US
HEOCIRCULARGSOGEO

About WGS SV-8

Description loading...

Live Position

Loading 3D Globe...

Upcoming Passes

Altitude History

Altitude vs Time

uPlot chart will show altitude changes over time

Two-Line Element Set

1 41879U 16075A 26060.33421905 -.00000221 00000-0 00000+0 0 9994
2 41879 0.0128 145.7239 0000320 265.8683 17.6471 1.00270471 33730
Epoch: Mar 1, 2026 • Age: 59 hours

Current Status

Altitude 35786.1 km
Velocity 3.07 km/s
Sub-Earth Point -0.02°S, 149.8°E
Launch Date Dec 7, 2016
Age 9.2 years
Type other

Technical Details

Classification Payload
Mass 5987.00 kg
Dry Mass 3400.00 kg
Total Mass 5987.00 kg
Length 6.00 m
Diameter 3.00 m
Span 40.90 m
Shape Box + 2 pan
Manufacturer BOES
Bus Type BSS-702HP
Phase Status In Orbit
Owner/State AFSMC/US

Large Constellations

Loading constellations...